Location: Clover
(42.5131°N, 114.6874°W)
Time: 14:02:02
(UTC+00:00)

Transit 2A Rocket - Pass Details

Date: 07 November 2024
Orbit: 585 x 904 km, 66.7° (Epoch: 02 December)

Event Time Altitude Azimuth Distance (km) Brightness Sun altitude
Rises 02:49:21 0° 330° (NNW) 3,294 8.7 -26.9°
Reaches altitude 10° 02:51:53 10° 333° (NNW) 2,310 7.8 -27.4°
Enters shadow 02:55:26 41° 347° (NNW) 1,055 5.7 -28.0°
